TimeCST,TemperatureF,Dew PointF,Humidity,Sea Level PressureIn,VisibilityMPH,Wind Direction,Wind SpeedMPH,Gust SpeedMPH,PrecipitationIn,Events,Conditions,WindDirDegrees,DateUTC
12:13 AM,19.4,15.8,86,30.08,10.0,SE,6.9,-,N/A,,Mostly Cloudy,130,2013-03-03 06:13:00
12:33 AM,17.6,12.2,79,30.07,10.0,SE,9.2,-,N/A,,Scattered Clouds,140,2013-03-03 06:33:00
12:53 AM,17.6,12.2,79,30.07,10.0,ESE,6.9,-,N/A,,Clear,120,2013-03-03 06:53:00
1:33 AM,17.6,14.0,86,30.06,10.0,SE,9.2,-,N/A,,Mostly Cloudy,130,2013-03-03 07:33:00
1:53 AM,17.6,14.0,86,30.06,10.0,SE,9.2,-,N/A,,Overcast,130,2013-03-03 07:53:00
2:14 AM,19.4,15.8,86,30.06,10.0,SE,8.1,-,N/A,,Overcast,130,2013-03-03 08:14:00
2:33 AM,19.4,15.8,86,30.05,10.0,SE,9.2,-,N/A,,Overcast,140,2013-03-03 08:33:00
2:53 AM,19.4,15.8,86,30.04,10.0,SE,8.1,-,N/A,,Overcast,130,2013-03-03 08:53:00
3:14 AM,19.4,15.8,86,30.03,10.0,SE,6.9,-,N/A,,Overcast,130,2013-03-03 09:14:00
3:33 AM,19.4,15.8,86,30.02,10.0,SE,8.1,-,N/A,,Mostly Cloudy,130,2013-03-03 09:33:00
3:53 AM,17.6,14.0,86,30.02,10.0,SE,8.1,-,N/A,,Scattered Clouds,130,2013-03-03 09:53:00
4:14 AM,17.6,14.0,86,30.02,10.0,ESE,4.6,-,N/A,,Clear,120,2013-03-03 10:14:00
4:33 AM,15.8,12.2,86,30.01,10.0,ESE,5.8,-,N/A,,Clear,110,2013-03-03 10:33:00
4:53 AM,14.0,10.4,86,30.01,10.0,East,6.9,-,N/A,,Clear,100,2013-03-03 10:53:00
5:14 AM,12.2,10.4,92,30.01,10.0,East,6.9,-,N/A,,Clear,100,2013-03-03 11:14:00
5:33 AM,12.2,10.4,92,30.02,10.0,ESE,8.1,-,N/A,,Clear,110,2013-03-03 11:33:00
6:13 AM,10.4,8.6,92,30.02,10.0,East,9.2,-,N/A,,Clear,100,2013-03-03 12:13:00
6:54 AM,12.2,8.6,85,30.02,10.0,ESE,9.2,-,N/A,,Clear,110,2013-03-03 12:54:00
7:13 AM,12.2,8.6,85,30.02,10.0,ESE,9.2,-,N/A,,Clear,120,2013-03-03 13:13:00
7:33 AM,12.2,8.6,85,30.01,10.0,ESE,9.2,-,N/A,,Clear,110,2013-03-03 13:33:00
7:54 AM,14.0,10.4,86,30.01,10.0,ESE,10.4,-,N/A,,Clear,120,2013-03-03 13:54:00
8:13 AM,15.8,10.4,79,30.00,10.0,ESE,11.5,-,N/A,,Clear,120,2013-03-03 14:13:00
8:33 AM,17.6,10.4,73,30.00,10.0,ESE,11.5,-,N/A,,Clear,110,2013-03-03 14:33:00
8:53 AM,17.6,10.4,73,30.00,10.0,ESE,11.5,-,N/A,,Clear,110,2013-03-03 14:53:00
9:13 AM,17.6,12.2,79,30.00,10.0,ESE,10.4,-,N/A,,Clear,110,2013-03-03 15:13:00
9:34 AM,19.4,12.2,74,30.00,10.0,East,13.8,-,N/A,,Clear,100,2013-03-03 15:34:00
9:53 AM,19.4,12.2,74,29.99,10.0,East,13.8,-,N/A,,Clear,100,2013-03-03 15:53:00
10:13 AM,21.2,15.8,80,29.99,10.0,East,13.8,-,N/A,,Clear,100,2013-03-03 16:13:00
10:34 AM,21.2,15.8,80,29.98,10.0,ESE,13.8,-,N/A,,Clear,110,2013-03-03 16:34:00
10:53 AM,23.0,15.8,74,29.98,10.0,ESE,15.0,-,N/A,,Clear,110,2013-03-03 16:53:00
11:13 AM,24.8,17.6,74,29.98,10.0,ESE,16.1,-,N/A,,Clear,110,2013-03-03 17:13:00
11:34 AM,24.8,17.6,74,29.97,10.0,East,17.3,-,N/A,,Clear,100,2013-03-03 17:34:00
11:53 AM,26.6,19.4,74,29.97,10.0,ESE,15.0,-,N/A,,Clear,110,2013-03-03 17:53:00
12:13 PM,26.6,19.4,74,29.96,10.0,ESE,19.6,25.3,N/A,,Clear,110,2013-03-03 18:13:00
12:34 PM,26.6,19.4,74,29.95,10.0,ESE,18.4,-,N/A,,Scattered Clouds,120,2013-03-03 18:34:00
12:53 PM,26.6,19.4,74,29.95,10.0,ESE,19.6,-,N/A,,Scattered Clouds,110,2013-03-03 18:53:00
1:13 PM,28.4,19.4,69,29.94,10.0,ESE,18.4,-,N/A,,Clear,120,2013-03-03 19:13:00
1:34 PM,28.4,19.4,69,29.93,10.0,ESE,17.3,21.9,N/A,,Clear,120,2013-03-03 19:34:00
1:53 PM,28.4,17.6,64,29.92,10.0,ESE,17.3,-,N/A,,Clear,120,2013-03-03 19:53:00
2:33 PM,28.4,15.8,59,29.91,10.0,ESE,19.6,-,N/A,,Clear,110,2013-03-03 20:33:00
2:53 PM,26.6,15.8,64,29.91,10.0,ESE,19.6,-,N/A,,Clear,110,2013-03-03 20:53:00
3:33 PM,26.6,14.0,59,29.90,10.0,ESE,16.1,-,N/A,,Scattered Clouds,110,2013-03-03 21:33:00
4:14 PM,26.6,14.0,59,29.90,10.0,ESE,15.0,-,N/A,,Mostly Cloudy,110,2013-03-03 22:14:00
4:33 PM,26.6,17.6,69,29.90,10.0,East,15.0,-,N/A,,Mostly Cloudy,100,2013-03-03 22:33:00
4:53 PM,26.6,17.6,69,29.90,10.0,East,16.1,-,N/A,,Scattered Clouds,100,2013-03-03 22:53:00
5:14 PM,24.8,15.8,69,29.90,10.0,East,16.1,-,N/A,,Scattered Clouds,100,2013-03-03 23:14:00
5:33 PM,26.6,15.8,64,29.90,10.0,ESE,16.1,-,N/A,,Mostly Cloudy,110,2013-03-03 23:33:00
5:53 PM,26.6,15.8,64,29.90,10.0,ESE,16.1,-,N/A,,Overcast,110,2013-03-03 23:53:00
6:14 PM,26.6,15.8,64,29.89,10.0,East,18.4,-,N/A,,Overcast,100,2013-03-04 00:14:00
6:33 PM,26.6,15.8,64,29.89,10.0,East,17.3,-,N/A,,Overcast,100,2013-03-04 00:33:00
6:53 PM,26.6,15.8,64,29.89,10.0,East,17.3,-,N/A,,Overcast,100,2013-03-04 00:53:00
7:14 PM,26.6,15.8,64,29.90,10.0,East,17.3,-,N/A,,Mostly Cloudy,100,2013-03-04 01:14:00
7:33 PM,26.6,15.8,64,29.90,10.0,East,17.3,23.0,N/A,,Overcast,100,2013-03-04 01:33:00
7:53 PM,26.6,15.8,64,29.90,10.0,East,17.3,-,N/A,,Mostly Cloudy,100,2013-03-04 01:53:00
8:14 PM,24.8,15.8,69,29.90,10.0,ESE,19.6,-,N/A,,Scattered Clouds,110,2013-03-04 02:14:00
8:33 PM,24.8,15.8,69,29.89,10.0,ESE,19.6,-,N/A,,Scattered Clouds,110,2013-03-04 02:33:00
8:53 PM,24.8,15.8,69,29.89,10.0,ESE,18.4,-,N/A,,Scattered Clouds,110,2013-03-04 02:53:00
9:13 PM,24.8,15.8,69,29.89,10.0,ESE,18.4,25.3,N/A,,Mostly Cloudy,110,2013-03-04 03:13:00
9:33 PM,24.8,15.8,69,29.89,10.0,ESE,19.6,-,N/A,,Mostly Cloudy,110,2013-03-04 03:33:00
9:53 PM,24.8,15.8,69,29.89,10.0,ESE,17.3,-,N/A,,Mostly Cloudy,110,2013-03-04 03:53:00
10:13 PM,24.8,15.8,69,29.89,10.0,ESE,17.3,-,N/A,,Mostly Cloudy,110,2013-03-04 04:13:00
10:33 PM,24.8,17.6,74,29.89,10.0,ESE,15.0,-,N/A,,Scattered Clouds,110,2013-03-04 04:33:00
10:53 PM,24.8,15.8,69,29.89,10.0,ESE,15.0,19.6,N/A,,Clear,120,2013-03-04 04:53:00
11:13 PM,24.8,15.8,69,29.90,10.0,ESE,16.1,21.9,N/A,,Clear,120,2013-03-04 05:13:00
11:33 PM,24.8,17.6,74,29.90,3.0,SE,20.7,28.8,N/A,Snow,Light Snow,130,2013-03-04 05:33:00
11:53 PM,23.0,19.4,86,29.90,3.0,ESE,17.3,25.3,N/A,Snow,Light Snow,120,2013-03-04 05:53:00